Wind_Speed
13 11 11 10 10 11 11 10 11 10 10 9 8 9 10 10 11 11 11 8 7 7 8 8 9 10 9 8 7 7 6 5 4
15 17 14 13 13 14 14 14 13 13 12 12 12 11 11 11 9 9 9 10 9 8 8 9 9 10 11 11 10 8 8 7 6
19 18 17 16 16 16 16 16 15 14 15 14 14 14 14 14 13 11 10 10 10 10 10 10 10 10 11 11 12 11 9 9 8
20 23 22 20 19 20 20 19 20 18 16 15 15 16 16 16 17 16 13 12 13 12 11 11 11 12 12 12 12 12 11 11 10
21 21 21 21 20 22 22 19 19 20 18 18 18 18 18 18 19 19 18 15 14 14 13 12 11 12 12 13 13 12 13 12 12
19 19 20 21 23 24 24 24 25 26 25 24 24 24 22 22 22 22 21 20 17 16 16 15 13 12 13 13 14 14 14 14 13
24 22 23 23 24 24 25 26 27 30 31 33 33 33 31 28 26 25 25 24 22 20 18 17 16 15 15 14 14 15 15 16 15
23 24 25 25 26 27 27 28 29 30 29 29 30 30 31 30 28 28 26 26 25 24 23 20 18 18 17 17 16 16 17 17 17
24 24 25 26 27 27 28 30 32 33 32 32 28 31 30 29 29 30 28 27 27 26 26 25 23 22 21 20 19 18 18 19 19
25 26 27 28 29 30 31 31 33 33 33 34 35 36 34 33 32 31 31 30 30 29 28 26 27 27 26 24 22 22 21 20 21
27 28 29 30 32 32 33 35 36 37 37 37 35 36 37 37 35 33 33 32 33 33 31 29 29 30 30 29 28 25 24 24 23
29 29 29 30 31 31 32 33 35 37 39 41 41 39 38 39 38 38 37 37 36 36 37 35 33 34 33 33 33 32 29 28 27
29 28 26 26 26 28 30 31 33 35 36 37 39 41 42 42 41 43 43 41 40 39 38 37 37 34 34 36 36 36 35 33 32
26 24 23 23 23 27 30 32 35 35 36 36 36 35 37 40 43 45 44 44 46 44 44 43 40 40 37 36 37 36 36 37 36
23 21 20 21 25 27 28 31 32 34 35 38 41 42 42 40 39 41 41 41 43 43 46 48 47 44 43 40 36 41 35 38 38
21 20 19 22 22 21 21 25 28 29 32 34 34 36 37 40 41 39 38 39 39 40 43 46 49 52 51 47 45 42 39 42 41
20 19 20 20 20 22 26 28 30 27 26 30 34 35 33 35 35 37 38 38 39 41 43 45 48 50 52 55 55 53 51 47 45
18 20 20 20 22 24 25 25 26 23 19 21 25 28 29 28 27 29 32 33 34 34 36 38 40 43 49 51 51 54 55 55 53
20 20 20 21 23 24 22 21 21 18 16 15 18 20 23 23 20 20 22 28 30 31 32 35 36 37 39 39 39 40 42 45 45
19 20 22 22 22 22 20 20 20 21 20 17 15 16 17 19 23 17 12 15 20 26 29 31 33 35 36 35 37 38 42 41 43
Wind_Direction
289 286 287 293 295 303 306 310 312 312 313 319 325 330 337 348 349 353 354 341 318 310 299 293 286 276 271 264 264 270 272 271 272
282 284 280 281 287 291 297 301 303 302 309 313 316 318 319 322 330 337 342 334 333 323 308 298 287 281 279 275 270 264 266 267 266
273 275 278 282 285 286 289 293 295 299 302 304 307 309 310 312 313 315 322 324 326 326 320 303 294 284 278 278 278 276 272 268 266
276 276 274 279 283 284 283 283 283 284 287 292 301 303 304 306 305 307 309 312 313 318 320 313 301 291 284 280 278 279 277 273 269
277 284 276 267 270 273 277 281 281 284 283 287 292 292 295 298 297 298 300 300 300 305 308 310 308 299 291 284 279 274 273 272 272
281 280 278 276 274 270 268 272 276 275 279 280 280 281 282 283 287 290 292 293 290 292 294 296 297 294 289 280 279 278 274 273 271
280 278 276 276 274 273 273 266 265 269 270 270 273 276 275 273 277 277 280 282 285 284 282 285 288 289 286 282 276 273 271 270 269
275 276 275 273 272 271 271 270 268 271 272 270 271 273 271 269 270 268 270 272 273 276 278 277 275 277 279 281 280 275 271 267 265
275 275 275 275 275 274 272 270 270 271 271 270 262 267 268 269 267 268 266 264 268 269 271 275 275 276 275 275 276 276 274 270 266
277 277 278 278 278 278 277 275 272 270 269 268 267 267 265 265 264 265 268 266 268 267 265 270 272 273 274 274 272 273 272 270 268
282 282 282 282 280 280 279 277 277 276 275 271 266 265 266 264 261 260 262 267 272 273 272 268 266 267 268 270 271 269 270 270 267
282 282 281 281 281 281 280 278 276 275 274 274 272 268 263 262 260 256 255 255 258 266 267 267 268 268 266 270 268 269 268 267 265
286 287 288 288 290 291 291 290 287 283 279 276 275 273 270 264 260 258 255 251 253 255 260 263 265 266 265 262 265 268 268 267 267
289 290 293 296 298 301 299 296 291 286 283 280 277 276 275 274 270 263 257 256 253 251 252 254 261 265 263 263 262 264 266 269 266
288 291 295 303 308 307 304 300 294 290 285 278 275 275 274 271 268 269 267 262 258 258 255 254 254 255 258 261 264 259 258 262 264
286 290 298 304 310 316 320 320 309 294 286 283 279 276 274 269 265 264 266 265 259 253 253 253 252 252 253 256 255 258 257 250 266
284 289 295 301 312 313 321 324 322 309 298 290 286 284 276 274 266 263 262 262 259 257 255 251 249 250 251 252 255 258 259 258 255
282 288 294 293 311 315 319 326 327 324 313 302 297 297 296 288 273 267 262 260 261 261 258 258 256 255 253 250 250 252 256 258 257
286 284 295 297 304 313 318 324 330 339 337 333 318 314 311 305 298 277 274 274 269 264 260 259 258 258 257 253 249 247 250 252 252
287 286 291 297 303 304 314 321 327 334 343 345 336 328 320 312 305 312 289 265 263 267 265 265 265 265 265 259 249 247 249 248 248
Height
3177 3177 3176 3176 3175 3175 3174 3172 3172 3171 3171 3170 3169 3168 3167 3166 3165 3164 3163 3162 3162 3161 3161 3161 3161 3161 3160 3160 3159 3159 3159 3158 3158
3174 3174 3173 3173 3173 3172 3172 3171 3170 3169 3169 3168 3167 3166 3165 3165 3165 3164 3163 3162 3161 3160 3160 3159 3159 3160 3159 3159 3159 3158 3158 3157 3156
3170 3169 3169 3170 3170 3169 3169 3169 3168 3167 3167 3167 3166 3165 3165 3164 3163 3163 3163 3161 3160 3159 3159 3158 3157 3158 3157 3158 3158 3158 3157 3156 3155
3166 3165 3165 3166 3165 3165 3165 3165 3164 3164 3164 3164 3163 3163 3163 3162 3161 3160 3161 3160 3159 3158 3158 3157 3156 3156 3156 3155 3156 3156 3156 3155 3155
3161 3161 3160 3160 3160 3161 3160 3160 3160 3159 3160 3160 3160 3159 3159 3159 3158 3157 3157 3157 3157 3156 3155 3155 3155 3153 3153 3153 3154 3153 3154 3154 3153
3156 3156 3155 3154 3154 3154 3155 3155 3155 3155 3155 3155 3154 3154 3155 3155 3154 3153 3153 3153 3153 3153 3152 3152 3151 3151 3151 3150 3150 3151 3151 3151 3151
3150 3151 3150 3149 3148 3148 3148 3148 3148 3147 3148 3148 3148 3148 3148 3148 3149 3149 3148 3148 3148 3147 3149 3149 3148 3148 3148 3148 3147 3147 3148 3148 3149
3145 3144 3143 3143 3142 3142 3141 3141 3141 3141 3141 3141 3140 3140 3140 3141 3142 3143 3143 3142 3143 3143 3143 3143 3144 3144 3144 3144 3144 3144 3144 3144 3145
3139 3138 3137 3136 3135 3135 3135 3135 3134 3133 3133 3133 3133 3133 3133 3134 3134 3136 3136 3137 3138 3138 3138 3138 3138 3139 3139 3140 3140 3140 3140 3140 3141
3132 3131 3131 3130 3129 3128 3128 3127 3126 3126 3126 3126 3126 3126 3125 3126 3127 3128 3129 3130 3130 3131 3132 3132 3132 3133 3133 3134 3135 3135 3136 3136 3136
3125 3125 3124 3124 3122 3122 3120 3119 3118 3117 3117 3117 3118 3117 3117 3118 3118 3120 3122 3123 3123 3124 3124 3125 3126 3126 3127 3128 3128 3129 3130 3130 3131
3118 3117 3116 3115 3114 3113 3112 3111 3110 3109 3108 3106 3107 3107 3108 3108 3108 3110 3112 3113 3115 3116 3117 3117 3119 3119 3120 3121 3122 3122 3123 3124 3125
3111 3110 3109 3108 3107 3106 3105 3103 3102 3100 3099 3098 3097 3096 3096 3098 3098 3099 3100 3102 3104 3106 3107 3108 3110 3111 3112 3113 3114 3115 3116 3117 3118
3104 3104 3103 3102 3101 3100 3097 3096 3093 3092 3090 3089 3088 3088 3087 3087 3086 3087 3089 3091 3093 3095 3096 3098 3100 3101 3103 3104 3105 3107 3108 3109 3111
3098 3098 3098 3097 3095 3092 3089 3086 3083 3080 3079 3078 3077 3078 3077 3077 3076 3077 3078 3081 3083 3084 3086 3088 3089 3090 3091 3093 3096 3096 3099 3099 3101
3093 3093 3092 3091 3089 3086 3083 3079 3075 3072 3069 3066 3066 3064 3065 3064 3065 3066 3067 3068 3069 3070 3072 3073 3075 3077 3079 3081 3083 3085 3088 3090 3091
3088 3088 3087 3085 3083 3081 3077 3072 3068 3063 3061 3057 3053 3052 3055 3053 3054 3055 3056 3056 3056 3057 3059 3060 3061 3063 3065 3068 3070 3072 3075 3078 3081
3082 3082 3081 3079 3077 3075 3071 3067 3062 3058 3055 3050 3047 3043 3042 3043 3045 3045 3044 3045 3047 3048 3048 3049 3051 3052 3052 3054 3056 3058 3061 3064 3067
3077 3076 3075 3074 3072 3069 3066 3062 3058 3054 3051 3047 3042 3039 3036 3034 3035 3038 3039 3037 3037 3038 3039 3039 3040 3042 3043 3044 3045 3046 3047 3048 3052
3071 3070 3069 3067 3065 3064 3061 3057 3053 3049 3045 3043 3040 3037 3034 3031 3028 3030 3032 3031 3030 3029 3029 3030 3031 3032 3032 3033 3034 3035 3036 3037 3039